| time (UTC) | temp C | wind direction | speed KPH | gust KPH | rain 1hr cm | rain 24hr cm | rain mn cm | humidity % | barometer mb |
| 20260507213534 | 18 | 317 | 8.0 | 19.3 | 0.00 | 0.00 | 0.00 | 40 | 1007.8 |
| 20260507213045 | 18 | 340 | 8.0 | 19.3 | 0.00 | 0.00 | 0.00 | 39 | 1007.8 |
| 20260507212536 | 18 | 306 | 8.0 | 24.1 | 0.00 | 0.00 | 0.00 | 38 | 1007.7 |
| 20260507212035 | 18 | 324 | 12.9 | 25.7 | 0.00 | 0.00 | 0.00 | 38 | 1007.7 |
| 20260507211548 | 18 | 294 | 8.0 | 25.7 | 0.00 | 0.00 | 0.00 | 36 | 1007.6 |
| 20260507211034 | 19 | 295 | 14.5 | 25.7 | 0.00 | 0.00 | 0.00 | 35 | 1007.7 |
| 20260507210533 | 20 | 272 | 8.0 | 19.3 | 0.00 | 0.00 | 0.00 | 36 | 1007.6 |
| 20260507210052 | 20 | 257 | 4.8 | 17.7 | 0.00 | 0.00 | 0.00 | 38 | 1007.6 |
| 20260507205536 | 20 | 360 | 3.2 | 17.7 | 0.00 | 0.00 | 0.00 | 38 | 1007.4 |
| 20260507205036 | 20 | 294 | 6.4 | 19.3 | 0.00 | 0.00 | 0.00 | 37 | 1007.4 |
| 20260507204548 | 20 | 327 | 8.0 | 19.3 | 0.00 | 0.00 | 0.00 | 37 | 1007.5 |
| 20260507204035 | 20 | 309 | 3.2 | 17.7 | 0.00 | 0.00 | 0.00 | 41 | 1007.4 |
| 20260507203534 | 20 | 32 | 8.0 | 20.9 | 0.00 | 0.00 | 0.00 | 39 | 1007.4 |
| 20260507203049 | 20 | 23 | 9.7 | 20.9 | 0.00 | 0.00 | 0.00 | 39 | 1007.5 |
| 20260507202535 | 20 | 332 | 9.7 | 20.9 | 0.00 | 0.00 | 0.00 | 40 | 1007.6 |
| 20260507202038 | 20 | 333 | 8.0 | 17.7 | 0.00 | 0.00 | 0.00 | 39 | 1007.5 |
| 20260507201549 | 20 | 254 | 4.8 | 17.7 | 0.00 | 0.00 | 0.00 | 40 | 1007.4 |
| 20260507201035 | 20 | 344 | 4.8 | 14.5 | 0.00 | 0.00 | 0.00 | 39 | 1007.4 |
| 20260507200536 | 20 | 259 | 6.4 | 12.9 | 0.00 | 0.00 | 0.00 | 42 | 1007.5 |
| 20260507200054 | 19 | 355 | 4.8 | 20.9 | 0.00 | 0.00 | 0.00 | 43 | 1007.7 |
| 20260507195535 | 18 | 290 | 4.8 | 22.5 | 0.00 | 0.00 | 0.00 | 42 | 1007.7 |
| 20260507195035 | 18 | 355 | 9.7 | 22.5 | 0.00 | 0.00 | 0.00 | 43 | 1007.7 |
| 20260507194549 | 18 | 320 | 6.4 | 17.7 | 0.00 | 0.00 | 0.00 | 44 | 1007.7 |
| 20260507194034 | 18 | 270 | 1.6 | 8.0 | 0.00 | 0.00 | 0.00 | 50 | 1007.8 |
| 20260507193535 | 18 | 32 | 1.6 | 8.0 | 0.00 | 0.00 | 0.00 | 46 | 1007.8 |
| 20260507193051 | 18 | 0 | 1.6 | 6.4 | 0.00 | 0.00 | 0.00 | 46 | 1008.0 |
| 20260507192533 | 18 | 219 | 0.0 | 6.4 | 0.00 | 0.00 | 0.00 | 47 | 1008.2 |
| 20260507192034 | 18 | 131 | 1.6 | 6.4 | 0.00 | 0.00 | 0.00 | 47 | 1008.2 |
| 20260507191548 | 17 | 123 | 1.6 | 4.8 | 0.00 | 0.00 | 0.00 | 47 | 1008.2 |
| 20260507191035 | 17 | 0 | 0.0 | 6.4 | 0.00 | 0.00 | 0.00 | 46 | 1008.2 |
| 20260507190534 | 17 | 79 | 3.2 | 6.4 | 0.00 | 0.00 | 0.00 | 45 | 1008.0 |
| 20260507190053 | 17 | 0 | 1.6 | 6.4 | 0.00 | 0.00 | 0.00 | 44 | 1008.2 |
| 20260507185534 | 17 | 58 | 0.0 | 6.4 | 0.00 | 0.00 | 0.00 | 46 | 1008.5 |
| 20260507185036 | 17 | 327 | 1.6 | 12.9 | 0.00 | 0.00 | 0.00 | 47 | 1008.6 |
| 20260507184543 | 18 | 311 | 4.8 | 12.9 | 0.00 | 0.00 | 0.00 | 46 | 1008.6 |
| 20260507184035 | 18 | 306 | 3.2 | 8.0 | 0.00 | 0.00 | 0.00 | 44 | 1008.5 |
| 20260507183539 | 18 | 45 | 4.8 | 17.7 | 0.00 | 0.00 | 0.00 | 45 | 1008.6 |
| 20260507183052 | 18 | 330 | 1.6 | 17.7 | 0.00 | 0.00 | 0.00 | 45 | 1008.6 |
| 20260507182535 | 18 | 340 | 8.0 | 17.7 | 0.00 | 0.00 | 0.00 | 47 | 1008.7 |
| 20260507182034 | 18 | 250 | 8.0 | 17.7 | 0.00 | 0.00 | 0.00 | 46 | 1008.7 |
| 20260507181539 | 18 | 282 | 9.7 | 17.7 | 0.00 | 0.00 | 0.00 | 46 | 1008.7 |
| 20260507181034 | 18 | 274 | 4.8 | 19.3 | 0.00 | 0.00 | 0.00 | 49 | 1008.8 |
| 20260507180535 | 17 | 198 | 3.2 | 19.3 | 0.00 | 0.00 | 0.00 | 51 | 1008.8 |
| 20260507180039 | 17 | 146 | 6.4 | 19.3 | 0.00 | 0.00 | 0.00 | 53 | 1008.8 |
| 20260507175534 | 16 | 104 | 1.6 | 9.7 | 0.00 | 0.00 | 0.00 | 51 | 1009.0 |
| 20260507175035 | 16 | 0 | 1.6 | 6.4 | 0.00 | 0.00 | 0.00 | 57 | 1009.2 |
| 20260507174554 | 16 | 125 | 3.2 | 9.7 | 0.00 | 0.00 | 0.00 | 55 | 1009.1 |
| 20260507174034 | 16 | 0 | 0.0 | 9.7 | 0.00 | 0.00 | 0.00 | 54 | 1009.3 |
| 20260507173533 | 16 | 198 | 3.2 | 9.7 | 0.00 | 0.00 | 0.00 | 52 | 1009.6 |
| 20260507173044 | 16 | 0 | 0.0 | 9.7 | 0.00 | 0.00 | 0.00 | 53 | 1009.5 |
| 20260507172541 | 16 | 123 | 0.0 | 11.3 | 0.00 | 0.00 | 0.00 | 53 | 1009.7 |
| 20260507172036 | 16 | 174 | 4.8 | 11.3 | 0.00 | 0.00 | 0.00 | 52 | 1009.6 |
| 20260507171556 | 16 | 207 | 3.2 | 8.0 | 0.00 | 0.00 | 0.00 | 51 | 1009.7 |
| 20260507171033 | 16 | 0 | 0.0 | 14.5 | 0.00 | 0.00 | 0.00 | 50 | 1009.8 |
| 20260507170534 | 16 | 24 | 4.8 | 14.5 | 0.00 | 0.00 | 0.00 | 50 | 1009.9 |
| 20260507170053 | 16 | 290 | 8.0 | 14.5 | 0.00 | 0.00 | 0.00 | 53 | 1010.0 |
| 20260507165535 | 16 | 242 | 6.4 | 9.7 | 0.00 | 0.00 | 0.00 | 53 | 1009.9 |
| 20260507165037 | 16 | 0 | 1.6 | 8.0 | 0.00 | 0.00 | 0.00 | 51 | 1010.0 |
| 20260507164547 | 16 | 16 | 1.6 | 8.0 | 0.00 | 0.00 | 0.00 | 53 | 1010.1 |
| 20260507164036 | 16 | 5 | 3.2 | 8.0 | 0.00 | 0.00 | 0.00 | 51 | 1010.4 |
| 20260507163536 | 16 | 82 | 3.2 | 11.3 | 0.00 | 0.00 | 0.00 | 49 | 1010.3 |
| 20260507163047 | 16 | 51 | 1.6 | 11.3 | 0.00 | 0.00 | 0.00 | 54 | 1010.5 |
| 20260507162540 | 16 | 98 | 3.2 | 14.5 | 0.00 | 0.00 | 0.00 | 51 | 1010.7 |
| 20260507162035 | 16 | 113 | 6.4 | 14.5 | 0.00 | 0.00 | 0.00 | 52 | 1010.7 |
| 20260507161552 | 15 | 148 | 3.2 | 14.5 | 0.00 | 0.00 | 0.00 | 54 | 1010.7 |
| 20260507161036 | 15 | 114 | 3.2 | 16.1 | 0.00 | 0.00 | 0.00 | 52 | 1010.7 |
| 20260507160537 | 15 | 150 | 6.4 | 16.1 | 0.00 | 0.00 | 0.00 | 53 | 1010.8 |
| 20260507160045 | 15 | 164 | 6.4 | 16.1 | 0.00 | 0.00 | 0.00 | 54 | 1010.9 |
| 20260507155535 | 15 | 185 | 3.2 | 16.1 | 0.00 | 0.00 | 0.00 | 54 | 1010.9 |
| 20260507155037 | 15 | 100 | 6.4 | 16.1 | 0.00 | 0.00 | 0.00 | 52 | 1010.9 |
| 20260507154546 | 15 | 36 | 6.4 | 14.5 | 0.00 | 0.00 | 0.00 | 53 | 1011.1 |
| 20260507154034 | 15 | 67 | 6.4 | 11.3 | 0.00 | 0.00 | 0.00 | 54 | 1011.2 |
| 20260507153535 | 15 | 35 | 1.6 | 14.5 | 0.00 | 0.00 | 0.00 | 56 | 1011.2 |
| 20260507153106 | 14 | 76 | 4.8 | 14.5 | 0.00 | 0.00 | 0.00 | 53 | 1011.3 |
| 20260507152537 | 14 | 191 | 3.2 | 11.3 | 0.00 | 0.00 | 0.00 | 57 | 1011.4 |
| 20260507152035 | 13 | 71 | 3.2 | 11.3 | 0.00 | 0.00 | 0.00 | 55 | 1011.5 |
| 20260507151539 | 13 | 44 | 4.8 | 11.3 | 0.00 | 0.00 | 0.00 | 56 | 1011.6 |
| 20260507151037 | 13 | 46 | 3.2 | 11.3 | 0.00 | 0.00 | 0.00 | 56 | 1011.6 |
| 20260507150533 | 13 | 346 | 0.0 | 14.5 | 0.00 | 0.00 | 0.00 | 57 | 1011.7 |
| 20260507150052 | 13 | 281 | 4.8 | 14.5 | 0.00 | 0.00 | 0.00 | 54 | 1011.8 |
| 20260507145538 | 13 | 94 | 6.4 | 14.5 | 0.00 | 0.00 | 0.00 | 57 | 1011.8 |
| 20260507145034 | 12 | 70 | 4.8 | 14.5 | 0.00 | 0.00 | 0.00 | 56 | 1012.0 |
| 20260507144546 | 12 | 30 | 4.8 | 14.5 | 0.00 | 0.00 | 0.00 | 56 | 1012.2 |
| 20260507144034 | 12 | 10 | 4.8 | 14.5 | 0.00 | 0.00 | 0.00 | 57 | 1012.1 |
| 20260507143536 | 12 | 32 | 4.8 | 11.3 | 0.00 | 0.00 | 0.00 | 58 | 1012.2 |
| 20260507143051 | 12 | 36 | 1.6 | 11.3 | 0.00 | 0.00 | 0.00 | 59 | 1012.4 |
| 20260507142534 | 12 | 67 | 1.6 | 11.3 | 0.00 | 0.00 | 0.00 | 59 | 1012.3 |
| 20260507142031 | 12 | 50 | 3.2 | 14.5 | 0.00 | 0.00 | 0.00 | 60 | 1012.4 |
| 20260507141542 | 12 | 0 | 3.2 | 14.5 | 0.00 | 0.00 | 0.00 | 59 | 1012.5 |
| 20260507141032 | 12 | 16 | 4.8 | 14.5 | 0.00 | 0.00 | 0.00 | 60 | 1012.5 |
| 20260507140534 | 11 | 5 | 1.6 | 6.4 | 0.00 | 0.00 | 0.00 | 60 | 1012.6 |
| 20260507140057 | 11 | 360 | 1.6 | 8.0 | 0.00 | 0.00 | 0.00 | 62 | 1012.8 |
| 20260507135534 | 11 | 46 | 3.2 | 8.0 | 0.00 | 0.08 | 0.00 | 61 | 1012.8 |
| 20260507135040 | 11 | 30 | 0.0 | 8.0 | 0.00 | 0.08 | 0.00 | 62 | 1012.9 |
| 20260507134539 | 11 | 72 | 1.6 | 6.4 | 0.00 | 0.08 | 0.00 | 64 | 1013.0 |
| 20260507134036 | 11 | 325 | 1.6 | 8.0 | 0.00 | 0.08 | 0.00 | 64 | 1013.0 |
| 20260507133534 | 11 | 333 | 1.6 | 8.0 | 0.00 | 0.08 | 0.00 | 66 | 1013.1 |
| 20260507133047 | 11 | 37 | 0.0 | 8.0 | 0.00 | 0.08 | 0.00 | 65 | 1013.1 |
| 20260507132537 | 11 | 0 | 1.6 | 8.0 | 0.00 | 0.08 | 0.00 | 65 | 1013.2 |
| 20260507132139 | 11 | 23 | 1.6 | 8.0 | 0.00 | 0.08 | 0.00 | 65 | 1013.3 |
| 20260507131544 | 11 | 0 | 3.2 | 9.7 | 0.00 | 0.08 | 0.00 | 65 | 1013.3 |
| 20260507131035 | 11 | 360 | 3.2 | 9.7 | 0.00 | 0.08 | 0.00 | 65 | 1013.4 |
| 20260507130533 | 11 | 0 | 1.6 | 9.7 | 0.00 | 0.08 | 0.00 | 67 | 1013.3 |
| 20260507130057 | 11 | 45 | 3.2 | 9.7 | 0.00 | 0.08 | 0.00 | 67 | 1013.1 |
| 20260507125536 | 11 | 0 | 0.0 | 8.0 | 0.00 | 0.20 | 0.00 | 68 | 1013.0 |
| 20260507125033 | 11 | 41 | 3.2 | 8.0 | 0.00 | 0.20 | 0.00 | 68 | 1013.0 |
| 20260507124557 | 11 | 50 | 1.6 | 8.0 | 0.00 | 0.20 | 0.00 | 68 | 1013.1 |
| 20260507124036 | 11 | 21 | 1.6 | 6.4 | 0.00 | 0.20 | 0.00 | 68 | 1012.9 |
| 20260507123536 | 11 | 54 | 1.6 | 8.0 | 0.00 | 0.20 | 0.00 | 69 | 1012.9 |
| 20260507123057 | 11 | 37 | 1.6 | 9.7 | 0.00 | 0.20 | 0.00 | 68 | 1013.1 |
| 20260507122536 | 11 | 348 | 4.8 | 9.7 | 0.00 | 0.20 | 0.00 | 68 | 1013.0 |
| 20260507122036 | 11 | 52 | 1.6 | 9.7 | 0.00 | 0.20 | 0.00 | 70 | 1013.0 |
| 20260507121543 | 11 | 5 | 1.6 | 8.0 | 0.00 | 0.20 | 0.00 | 70 | 1012.9 |
| 20260507121033 | 11 | 355 | 1.6 | 8.0 | 0.00 | 0.20 | 0.00 | 70 | 1012.9 |
| 20260507120542 | 11 | 341 | 1.6 | 8.0 | 0.00 | 0.20 | 0.00 | 71 | 1012.9 |
| 20260507120040 | 11 | 342 | 1.6 | 9.7 | 0.00 | 0.20 | 0.00 | 72 | 1012.9 |
| 20260507115534 | 11 | 26 | 3.2 | 9.7 | 0.00 | 0.30 | 0.00 | 72 | 1012.8 |
| 20260507115034 | 11 | 0 | 3.2 | 9.7 | 0.00 | 0.30 | 0.00 | 74 | 1012.8 |
| 20260507114547 | 11 | 29 | 0.0 | 9.7 | 0.00 | 0.30 | 0.00 | 76 | 1012.7 |
| 20260507114034 | 11 | 29 | 1.6 | 9.7 | 0.00 | 0.30 | 0.00 | 77 | 1012.7 |
| 20260507113541 | 11 | 54 | 3.2 | 9.7 | 0.00 | 0.30 | 0.00 | 78 | 1012.7 |
| 20260507113045 | 11 | 46 | 3.2 | 8.0 | 0.00 | 0.30 | 0.00 | 78 | 1012.6 |
| 20260507112535 | 11 | 331 | 3.2 | 8.0 | 0.00 | 0.30 | 0.00 | 78 | 1012.4 |
| 20260507112033 | 11 | 346 | 1.6 | 6.4 | 0.00 | 0.30 | 0.00 | 79 | 1012.4 |
| 20260507111544 | 11 | 5 | 1.6 | 6.4 | 0.00 | 0.30 | 0.00 | 79 | 1012.3 |
| 20260507111035 | 11 | 0 | 0.0 | 6.4 | 0.00 | 0.30 | 0.00 | 79 | 1012.3 |
| 20260507110533 | 11 | 5 | 1.6 | 6.4 | 0.00 | 0.30 | 0.00 | 79 | 1012.3 |
| 20260507110043 | 11 | 0 | 0.0 | 6.4 | 0.00 | 0.30 | 0.00 | 79 | 1012.3 |
| 20260507105533 | 11 | 49 | 1.6 | 4.8 | 0.00 | 0.33 | 0.00 | 79 | 1012.2 |
| 20260507105035 | 11 | 49 | 1.6 | 4.8 | 0.00 | 0.33 | 0.00 | 79 | 1012.3 |
| 20260507104550 | 11 | 0 | 0.0 | 1.6 | 0.00 | 0.33 | 0.00 | 79 | 1012.3 |
| 20260507104037 | 11 | 0 | 0.0 | 1.6 | 0.00 | 0.33 | 0.00 | 79 | 1012.2 |
| 20260507103533 | 11 | 0 | 0.0 | 1.6 | 0.00 | 0.33 | 0.00 | 79 | 1012.0 |
| 20260507103044 | 11 | 0 | 0.0 | 0.0 | 0.00 | 0.33 | 0.00 | 77 | 1012.0 |
| 20260507102534 | 11 | 0 | 0.0 | 0.0 | 0.00 | 0.33 | 0.00 | 77 | 1011.9 |
| 20260507102033 | 11 | 0 | 0.0 | 8.0 | 0.00 | 0.33 | 0.00 | 77 | 1011.9 |
| 20260507101556 | 11 | 0 | 0.0 | 8.0 | 0.00 | 0.33 | 0.00 | 76 | 1011.8 |
| 20260507101032 | 11 | 0 | 1.6 | 6.4 | 0.00 | 0.33 | 0.00 | 76 | 1011.8 |
| 20260507100533 | 11 | 0 | 0.0 | 3.2 | 0.00 | 0.33 | 0.00 | 76 | 1011.8 |
| 20260507100055 | 11 | 0 | 0.0 | 6.4 | 0.00 | 0.33 | 0.00 | 76 | 1011.9 |
| 20260507095535 | 11 | 0 | 1.6 | 6.4 | 0.00 | 0.33 | 0.00 | 75 | 1011.6 |
| 20260507095037 | 11 | 0 | 0.0 | 4.8 | 0.00 | 0.33 | 0.00 | 75 | 1011.5 |
| 20260507094549 | 11 | 0 | 0.0 | 12.9 | 0.00 | 0.33 | 0.00 | 75 | 1011.5 |
| 20260507094033 | 12 | 0 | 0.0 | 12.9 | 0.00 | 0.33 | 0.00 | 74 | 1011.7 |
| 20260507093532 | 12 | 56 | 4.8 | 12.9 | 0.00 | 0.33 | 0.00 | 74 | 1011.7 |
| 20260507093042 | 12 | 325 | 1.6 | 8.0 | 0.00 | 0.33 | 0.00 | 74 | 1011.6 |
| 20260507092535 | 12 | 0 | 0.0 | 8.0 | 0.00 | 0.33 | 0.00 | 73 | 1011.5 |
| 20260507092038 | 12 | 296 | 1.6 | 6.4 | 0.00 | 0.33 | 0.00 | 74 | 1011.6 |
| 20260507091538 | 12 | 326 | 0.0 | 3.2 | 0.00 | 0.33 | 0.00 | 74 | 1011.5 |
| 20260507091032 | 12 | 0 | 0.0 | 6.4 | 0.00 | 0.33 | 0.00 | 73 | 1011.4 |
| 20260507090532 | 12 | 0 | 0.0 | 6.4 | 0.00 | 0.33 | 0.00 | 74 | 1011.4 |
| 20260507090039 | 12 | 326 | 3.2 | 9.7 | 0.00 | 0.33 | 0.00 | 73 | 1011.4 |
| 20260507085533 | 12 | 355 | 1.6 | 11.3 | 0.00 | 0.33 | 0.00 | 73 | 1011.3 |
| 20260507085034 | 12 | 318 | 4.8 | 11.3 | 0.00 | 0.33 | 0.00 | 73 | 1011.4 |
| 20260507084544 | 12 | 269 | 4.8 | 12.9 | 0.00 | 0.33 | 0.00 | 72 | 1011.5 |
| 20260507084033 | 12 | 319 | 4.8 | 12.9 | 0.00 | 0.33 | 0.00 | 72 | 1011.4 |
| 20260507083533 | 12 | 327 | 4.8 | 12.9 | 0.00 | 0.33 | 0.00 | 72 | 1011.5 |
| 20260507083103 | 12 | 346 | 4.8 | 12.9 | 0.00 | 0.33 | 0.00 | 72 | 1011.5 |
| 20260507082533 | 12 | 312 | 3.2 | 16.1 | 0.00 | 0.33 | 0.00 | 72 | 1011.6 |
| 20260507082036 | 12 | 293 | 3.2 | 16.1 | 0.00 | 0.33 | 0.00 | 71 | 1011.5 |
| 20260507081553 | 12 | 323 | 8.0 | 16.1 | 0.00 | 0.33 | 0.00 | 71 | 1011.5 |
| 20260507081038 | 12 | 265 | 1.6 | 6.4 | 0.00 | 0.33 | 0.00 | 72 | 1011.4 |
| 20260507080533 | 12 | 326 | 3.2 | 6.4 | 0.00 | 0.33 | 0.00 | 72 | 1011.6 |
| 20260507080050 | 12 | 211 | 3.2 | 12.9 | 0.00 | 0.33 | 0.00 | 72 | 1011.5 |
| 20260507075535 | 12 | 312 | 3.2 | 12.9 | 0.00 | 0.33 | 0.00 | 71 | 1011.3 |
| 20260507075036 | 12 | 267 | 4.8 | 12.9 | 0.00 | 0.33 | 0.00 | 71 | 1011.3 |
| 20260507074549 | 12 | 57 | 4.8 | 12.9 | 0.00 | 0.33 | 0.00 | 72 | 1011.3 |
| 20260507074035 | 12 | 136 | 3.2 | 9.7 | 0.00 | 0.33 | 0.00 | 72 | 1011.1 |
| 20260507073532 | 12 | 112 | 3.2 | 9.7 | 0.00 | 0.33 | 0.00 | 73 | 1011.2 |
| 20260507073058 | 12 | 78 | 1.6 | 17.7 | 0.00 | 0.33 | 0.00 | 73 | 1011.1 |
| 20260507072536 | 12 | 119 | 1.6 | 17.7 | 0.00 | 0.33 | 0.00 | 73 | 1011.0 |
| 20260507072038 | 12 | 32 | 4.8 | 17.7 | 0.00 | 0.33 | 0.00 | 73 | 1010.9 |
| 20260507071552 | 12 | 115 | 8.0 | 14.5 | 0.00 | 0.33 | 0.00 | 73 | 1011.1 |
| 20260507071036 | 12 | 134 | 4.8 | 12.9 | 0.00 | 0.33 | 0.00 | 75 | 1011.1 |
| 20260507070536 | 12 | 144 | 1.6 | 12.9 | 0.00 | 0.33 | 0.00 | 74 | 1011.1 |
| 20260507070046 | 12 | 0 | 1.6 | 14.5 | 0.00 | 0.33 | 0.00 | 74 | 1011.0 |
| 20260507065533 | 12 | 42 | 3.2 | 14.5 | 0.00 | 0.33 | 0.00 | 74 | 1011.0 |
| 20260507065036 | 12 | 0 | 4.8 | 12.9 | 0.00 | 0.33 | 0.00 | 75 | 1011.2 |
| 20260507064543 | 12 | 98 | 4.8 | 12.9 | 0.00 | 0.33 | 0.00 | 76 | 1011.3 |
| 20260507064036 | 12 | 333 | 4.8 | 14.5 | 0.00 | 0.33 | 0.00 | 76 | 1011.3 |
| 20260507063534 | 12 | 207 | 6.4 | 14.5 | 0.00 | 0.33 | 0.00 | 78 | 1011.3 |
| 20260507063053 | 12 | 67 | 1.6 | 6.4 | 0.00 | 0.33 | 0.00 | 78 | 1011.3 |
| 20260507062536 | 12 | 83 | 1.6 | 8.0 | 0.00 | 0.33 | 0.00 | 79 | 1011.3 |
| 20260507062033 | 12 | 83 | 3.2 | 14.5 | 0.00 | 0.33 | 0.00 | 79 | 1011.5 |
| 20260507061545 | 12 | 325 | 3.2 | 14.5 | 0.00 | 0.33 | 0.00 | 81 | 1011.6 |
| 20260507061033 | 12 | 360 | 1.6 | 12.9 | 0.00 | 0.33 | 0.00 | 82 | 1011.5 |
| 20260507060535 | 12 | 103 | 4.8 | 11.3 | 0.00 | 0.33 | 0.00 | 82 | 1011.6 |
| 20260507060049 | 12 | 55 | 3.2 | 6.4 | 0.00 | 0.33 | 0.00 | 82 | 1011.5 |
| 20260507055539 | 12 | 0 | 1.6 | 6.4 | 0.00 | 0.33 | 0.00 | 82 | 1011.8 |
| 20260507055036 | 12 | 30 | 1.6 | 12.9 | 0.00 | 0.33 | 0.00 | 82 | 1011.8 |
| 20260507054544 | 12 | 69 | 4.8 | 12.9 | 0.00 | 0.33 | 0.00 | 82 | 1011.9 |
| 20260507054037 | 12 | 107 | 4.8 | 11.3 | 0.00 | 0.33 | 0.00 | 82 | 1011.6 |
| 20260507053537 | 12 | 67 | 1.6 | 9.7 | 0.00 | 0.33 | 0.00 | 83 | 1011.6 |
| 20260507053045 | 12 | 68 | 4.8 | 8.0 | 0.00 | 0.33 | 0.00 | 83 | 1011.5 |
| 20260507052537 | 12 | 39 | 1.6 | 16.1 | 0.00 | 0.33 | 0.00 | 83 | 1011.4 |
| 20260507052034 | 12 | 74 | 6.4 | 16.1 | 0.00 | 0.33 | 0.00 | 83 | 1011.3 |
| 20260507051544 | 12 | 56 | 6.4 | 14.5 | 0.00 | 0.33 | 0.00 | 83 | 1011.2 |
| 20260507051033 | 12 | 115 | 4.8 | 12.9 | 0.00 | 0.33 | 0.00 | 83 | 1011.1 |
| 20260507050535 | 12 | 101 | 8.0 | 12.9 | 0.00 | 0.33 | 0.00 | 83 | 1011.1 |
| 20260507050042 | 12 | 0 | 3.2 | 14.5 | 0.00 | 0.33 | 0.00 | 82 | 1011.1 |
| 20260507045538 | 13 | 323 | 3.2 | 17.7 | 0.00 | 0.33 | 0.00 | 82 | 1011.1 |
| 20260507045034 | 13 | 77 | 1.6 | 17.7 | 0.00 | 0.33 | 0.00 | 81 | 1010.9 |
| 20260507044549 | 13 | 323 | 3.2 | 16.1 | 0.00 | 0.33 | 0.00 | 81 | 1011.1 |
| 20260507044036 | 13 | 27 | 3.2 | 14.5 | 0.00 | 0.33 | 0.00 | 80 | 1011.0 |
| 20260507043534 | 13 | 339 | 1.6 | 14.5 | 0.00 | 0.33 | 0.00 | 80 | 1010.9 |
| 20260507043045 | 13 | 348 | 1.6 | 11.3 | 0.00 | 0.33 | 0.00 | 81 | 1010.8 |
| 20260507042624 | 13 | 355 | 4.8 | 11.3 | 0.00 | 0.33 | 0.00 | 81 | 1010.8 |
| 20260507042034 | 13 | 27 | 3.2 | 8.0 | 0.00 | 0.33 | 0.00 | 81 | 1010.8 |
| 20260507041547 | 13 | 38 | 3.2 | 8.0 | 0.00 | 0.33 | 0.00 | 81 | 1010.5 |
| 20260507041033 | 14 | 63 | 3.2 | 8.0 | 0.00 | 0.33 | 0.00 | 80 | 1010.0 |
| 20260507040537 | 14 | 59 | 0.0 | 9.7 | 0.00 | 0.33 | 0.00 | 81 | 1010.8 |
| 20260507040046 | 14 | 0 | 3.2 | 9.7 | 0.00 | 0.33 | 0.00 | 80 | 1011.1 |
| 20260507035536 | 14 | 340 | 3.2 | 6.4 | 0.00 | 0.33 | 0.33 | 80 | 1010.9 |
| 20260507035038 | 14 | 218 | 0.0 | 8.0 | 0.00 | 0.33 | 0.33 | 80 | 1010.7 |
| 20260507034546 | 14 | 36 | 3.2 | 8.0 | 0.00 | 0.33 | 0.33 | 80 | 1010.8 |
| 20260507034034 | 14 | 53 | 1.6 | 11.3 | 0.00 | 0.33 | 0.33 | 80 | 1010.7 |
| 20260507033535 | 14 | 92 | 1.6 | 11.3 | 0.00 | 0.33 | 0.33 | 80 | 1011.1 |
| 20260507033039 | 14 | 121 | 4.8 | 11.3 | 0.00 | 0.33 | 0.33 | 80 | 1010.9 |
| 20260507032533 | 14 | 160 | 1.6 | 8.0 | 0.00 | 0.33 | 0.33 | 80 | 1011.1 |
| 20260507032035 | 14 | 92 | 0.0 | 8.0 | 0.00 | 0.33 | 0.33 | 80 | 1010.9 |
| 20260507031538 | 15 | 44 | 3.2 | 8.0 | 0.00 | 0.33 | 0.33 | 81 | 1011.2 |
| 20260507031039 | 15 | 338 | 0.0 | 6.4 | 0.00 | 0.33 | 0.33 | 81 | 1011.2 |
| 20260507030533 | 15 | 319 | 1.6 | 6.4 | 0.00 | 0.33 | 0.33 | 81 | 1011.2 |
| 20260507030047 | 15 | 37 | 3.2 | 8.0 | 0.00 | 0.33 | 0.33 | 81 | 1010.3 |
| 20260507025535 | 15 | 84 | 1.6 | 8.0 | 0.00 | 0.33 | 0.33 | 80 | 1010.5 |
| 20260507025039 | 15 | 84 | 3.2 | 11.3 | 0.00 | 0.33 | 0.33 | 80 | 1010.4 |
| 20260507024551 | 15 | 109 | 4.8 | 11.3 | 0.00 | 0.33 | 0.33 | 80 | 1010.3 |
| 20260507024034 | 15 | 355 | 3.2 | 14.5 | 0.00 | 0.33 | 0.33 | 80 | 1010.8 |
| 20260507023544 | 15 | 296 | 3.2 | 14.5 | 0.00 | 0.33 | 0.33 | 80 | 1010.9 |
| 20260507023044 | 15 | 71 | 4.8 | 12.9 | 0.00 | 0.33 | 0.33 | 80 | 1011.1 |
| 20260507022536 | 15 | 76 | 3.2 | 12.9 | 0.00 | 0.33 | 0.33 | 81 | 1010.8 |
| 20260507022036 | 16 | 34 | 1.6 | 8.0 | 0.00 | 0.33 | 0.33 | 82 | 1010.8 |
| 20260507021542 | 16 | 30 | 1.6 | 9.7 | 0.00 | 0.33 | 0.33 | 81 | 1010.4 |
| 20260507021037 | 16 | 43 | 3.2 | 9.7 | 0.00 | 0.33 | 0.33 | 81 | 1010.3 |
| 20260507020533 | 16 | 47 | 3.2 | 9.7 | 0.00 | 0.33 | 0.33 | 81 | 1009.7 |
| 20260507020104 | 16 | 53 | 4.8 | 9.7 | 0.00 | 0.33 | 0.33 | 80 | 1009.8 |
| 20260507015533 | 16 | 45 | 3.2 | 6.4 | 0.00 | 0.33 | 0.33 | 80 | 1009.9 |
| 20260507015036 | 16 | 81 | 3.2 | 8.0 | 0.00 | 0.33 | 0.33 | 79 | 1010.0 |
| 20260507014557 | 16 | 42 | 3.2 | 8.0 | 0.00 | 0.33 | 0.33 | 79 | 1010.0 |
| 20260507014035 | 17 | 0 | 1.6 | 6.4 | 0.00 | 0.33 | 0.33 | 79 | 1010.1 |
| 20260507013532 | 17 | 71 | 1.6 | 6.4 | 0.00 | 0.33 | 0.33 | 80 | 1009.9 |
| 20260507013050 | 17 | 0 | 1.6 | 4.8 | 0.00 | 0.33 | 0.33 | 80 | 1010.0 |
| 20260507012537 | 17 | 0 | 0.0 | 6.4 | 0.00 | 0.33 | 0.33 | 79 | 1010.0 |
| 20260507012037 | 17 | 332 | 3.2 | 6.4 | 0.00 | 0.33 | 0.33 | 78 | 1009.8 |
| 20260507011545 | 17 | 68 | 1.6 | 6.4 | 0.00 | 0.33 | 0.33 | 77 | 1009.5 |
| 20260507011035 | 17 | 68 | 1.6 | 11.3 | 0.00 | 0.33 | 0.33 | 77 | 1009.5 |
| 20260507010539 | 17 | 68 | 3.2 | 12.9 | 0.00 | 0.33 | 0.33 | 77 | 1009.5 |
| 20260507010044 | 17 | 46 | 3.2 | 12.9 | 0.00 | 0.33 | 0.33 | 77 | 1009.6 |
| 20260507005534 | 17 | 323 | 1.6 | 12.9 | 0.00 | 0.33 | 0.33 | 77 | 1009.5 |
| 20260507005035 | 17 | 31 | 3.2 | 12.9 | 0.00 | 0.33 | 0.33 | 76 | 1009.5 |
| 20260507004544 | 17 | 321 | 6.4 | 19.3 | 0.00 | 0.33 | 0.33 | 76 | 1009.7 |
| 20260507004033 | 18 | 26 | 3.2 | 19.3 | 0.00 | 0.33 | 0.33 | 76 | 1009.7 |
| 20260507003533 | 17 | 31 | 3.2 | 16.1 | 0.00 | 0.33 | 0.33 | 77 | 1009.7 |
| 20260507003047 | 17 | 96 | 8.0 | 16.1 | 0.00 | 0.33 | 0.33 | 77 | 1009.8 |
| 20260507002533 | 17 | 108 | 4.8 | 12.9 | 0.00 | 0.33 | 0.33 | 79 | 1009.6 |
| 20260507002034 | 17 | 150 | 1.6 | 8.0 | 0.00 | 0.33 | 0.33 | 78 | 1009.7 |
| 20260507001538 | 17 | 150 | 3.2 | 12.9 | 0.00 | 0.33 | 0.33 | 78 | 1009.5 |
| 20260507001033 | 17 | 232 | 4.8 | 19.3 | 0.00 | 0.33 | 0.33 | 78 | 1009.4 |
| 20260507000533 | 18 | 124 | 1.6 | 19.3 | 0.00 | 0.33 | 0.33 | 78 | 1009.2 |
| 20260507000038 | 18 | 303 | 8.0 | 19.3 | 0.00 | 0.33 | 0.33 | 77 | 1009.3 |
| 20260506235534 | 18 | 316 | 4.8 | 16.1 | 0.00 | 0.33 | 0.33 | 77 | 1009.3 |
| 20260506235035 | 18 | 293 | 4.8 | 22.5 | 0.00 | 0.33 | 0.33 | 76 | 1009.2 |
| 20260506234550 | 18 | 274 | 4.8 | 22.5 | 0.00 | 0.33 | 0.33 | 76 | 1009.3 |
| 20260506234034 | 18 | 284 | 12.9 | 22.5 | 0.00 | 0.33 | 0.33 | 76 | 1009.2 |
| 20260506233536 | 18 | 0 | 4.8 | 17.7 | 0.00 | 0.33 | 0.33 | 78 | 1009.1 |
| 20260506233057 | 18 | 240 | 8.0 | 14.5 | 0.00 | 0.33 | 0.33 | 78 | 1009.0 |
| 20260506232532 | 18 | 254 | 4.8 | 17.7 | 0.00 | 0.33 | 0.33 | 78 | 1008.8 |
| 20260506232034 | 18 | 259 | 4.8 | 17.7 | 0.00 | 0.33 | 0.33 | 77 | 1008.7 |
| 20260506231551 | 19 | 326 | 4.8 | 17.7 | 0.00 | 0.33 | 0.33 | 76 | 1008.9 |
| 20260506231033 | 19 | 309 | 3.2 | 14.5 | 0.00 | 0.33 | 0.33 | 75 | 1008.8 |
| 20260506230533 | 19 | 317 | 6.4 | 20.9 | 0.00 | 0.33 | 0.33 | 74 | 1008.5 |
| 20260506230053 | 19 | 327 | 6.4 | 20.9 | 0.00 | 0.33 | 0.33 | 73 | 1008.4 |
| 20260506225535 | 20 | 322 | 8.0 | 20.9 | 0.00 | 0.33 | 0.33 | 73 | 1008.5 |
| 20260506225033 | 20 | 317 | 12.9 | 20.9 | 0.00 | 0.33 | 0.33 | 72 | 1008.5 |
| 20260506224549 | 20 | 316 | 11.3 | 20.9 | 0.00 | 0.33 | 0.33 | 72 | 1008.7 |
| 20260506224034 | 20 | 333 | 8.0 | 17.7 | 0.00 | 0.33 | 0.33 | 71 | 1008.5 |
| 20260506223534 | 20 | 319 | 6.4 | 16.1 | 0.00 | 0.33 | 0.33 | 71 | 1008.3 |
| 20260506223052 | 21 | 312 | 4.8 | 16.1 | 0.00 | 0.33 | 0.33 | 71 | 1008.2 |
| 20260506222536 | 21 | 355 | 8.0 | 16.1 | 0.00 | 0.33 | 0.33 | 70 | 1008.3 |
| 20260506222032 | 21 | 333 | 6.4 | 16.1 | 0.00 | 0.33 | 0.33 | 69 | 1008.1 |
| 20260506221546 | 21 | 333 | 4.8 | 9.7 | 0.00 | 0.33 | 0.33 | 70 | 1008.3 |
| 20260506221036 | 21 | 0 | 0.0 | 3.2 | 0.00 | 0.33 | 0.33 | 72 | 1008.2 |
| 20260506220537 | 21 | 0 | 0.0 | 4.8 | 0.00 | 0.33 | 0.33 | 70 | 1008.1 |
| 20260506220045 | 21 | 0 | 0.0 | 4.8 | 0.00 | 0.33 | 0.33 | 69 | 1008.2 |
| 20260506215539 | 21 | 263 | 1.6 | 4.8 | 0.00 | 0.33 | 0.33 | 69 | 1008.1 |
| 20260506215033 | 21 | 271 | 0.0 | 4.8 | 0.00 | 0.33 | 0.33 | 70 | 1008.0 |
| 20260506214544 | 21 | 299 | 0.0 | 4.8 | 0.00 | 0.33 | 0.33 | 69 | 1007.9 |
| 20260506214033 | 22 | 320 | 0.0 | 4.8 | 0.00 | 0.33 | 0.33 | 70 | 1007.8 |